Location: Gull Harbor
(47.1000°N, 122.9000°W)
Time: 18:25:28
(UTC-08:00)

Envisat - Visible Passes

Search period start: 03 December 2021 00:00
Search period end: 13 December 2021 00:00
Orbit: 764 x 766 km, 98.2° (Epoch: 03 December)

Date Brightness Start Highest point End Pass type
(mag) Time Alt. Az. Time Alt. Az. Time Alt. Az.
03 Dec 3.9 04:51:49 10° NNE 04:56:45 48° E 05:01:38 10° S visible
03 Dec 3.9 06:31:22 10° N 06:35:30 26° WNW 06:39:39 10° WSW visible
03 Dec 6.1 17:51:26 10° WSW 17:53:57 14° W 17:56:29 10° WNW visible
04 Dec 5.2 04:15:36 10° NE 04:19:37 23° E 04:23:38 10° SE visible
04 Dec 3.1 05:54:00 10° N 05:58:55 50° WNW 06:03:48 10° SW visible
04 Dec 5.3 17:12:19 10° SSW 17:16:40 28° W 17:21:03 10° NW visible
05 Dec 6.1 03:41:05 10° ENE 03:42:17 11° E 03:43:29 10° E visible
05 Dec 3.0 05:17:00 10° NNE 05:22:08 80° ESE 05:27:12 10° S visible
05 Dec 4.4 06:57:22 10° NNW 07:00:31 17° WNW 07:03:39 10° W visible
06 Dec 4.3 04:40:23 10° NNE 04:45:08 38° E 04:49:51 10° SSE visible
06 Dec 3.7 06:19:36 10° N 06:24:03 31° WNW 06:28:29 10° SW visible
06 Dec 5.9 17:38:56 10° SW 17:42:15 17° W 17:45:34 10° NW visible
07 Dec 5.5 04:04:24 10° NE 04:07:57 19° E 04:11:28 10° SE visible
07 Dec 2.9 05:42:22 10° N 05:47:24 63° WNW 05:52:24 10° SSW visible
07 Dec 4.8 17:00:24 10° SSW 17:05:02 35° W 17:09:41 10° NNW visible
08 Dec 3.3 05:05:29 10° NNE 05:10:33 64° ESE 05:15:35 10° S visible
08 Dec 4.2 06:45:27 10° NNW 06:49:06 20° WNW 06:52:44 10° WSW visible
09 Dec 4.7 04:29:01 10° NNE 04:33:30 31° E 04:37:58 10° SSE visible
09 Dec 3.4 06:07:53 10° N 06:12:34 38° WNW 06:17:14 10° SW visible
09 Dec 5.7 17:26:42 10° SW 17:30:34 21° W 17:34:26 10° NW visible
10 Dec 5.8 03:53:23 10° NE 03:56:15 15° E 03:59:05 10° ESE visible
10 Dec 2.8 05:30:46 10° N 05:35:52 78° WNW 05:40:56 10° SSW visible
10 Dec 4.6 07:11:48 10° NNW 07:14:02 13° NW 07:16:17 10° W visible
10 Dec 4.4 16:48:34 10° S 16:53:24 44° W 16:58:16 10° NNW visible
11 Dec 3.8 04:53:59 10° NNE 04:58:57 51° E 05:03:53 10° S visible
11 Dec 4.0 06:33:37 10° N 06:37:40 24° WNW 06:41:42 10° WSW visible
11 Dec 6.1 17:53:59 10° WSW 17:56:11 13° W 17:58:24 10° WNW visible
12 Dec 5.1 04:17:41 10° NE 04:21:51 25° E 04:25:58 10° SSE visible
12 Dec 3.2 05:56:13 10° N 06:01:05 47° WNW 06:05:56 10° SW visible
12 Dec 5.4 17:14:38 10° SSW 17:18:53 27° W 17:23:10 10° NW visible
